{"data":{"norad_id":53970,"epoch":"2026-09-20T14:05:38.574528Z","epoch_age_seconds":79464,"freshness":"FRESH","line1":"1 53970U 22125G   26263.58725202  .00000198  00000+0  16587-4 0  9994","line2":"2 53970  53.1600  51.7275 0001228  94.6042 265.5101 15.35394100218996","mean_motion":15.353941,"eccentricity":0.0001228,"inclination_deg":53.16,"raan_deg":51.7275,"arg_perigee_deg":94.6042,"mean_anomaly_deg":265.5101,"bstar":1.6587e-5,"rev_number":21899,"period_min":93.78699579476,"perigee_km":458.9104672662,"apogee_km":460.58985235265,"semimajor_km":6837.8871598094,"source":"CELESTRAK","updated_at":"2026-09-21T09:00:33.040210Z"}}